Flag for Jersey Weather past 2 weeks in Saint Helier, Jersey

Now
43 °F

Clear.


Feels Like: 35 °F
Forecast: 44 / 54 °F
Wind: 17 mph from South

Location: Jersey Airport

Current Time: Mar 7, 2015 at 5:10:34 AM

Latest Report: Mar 7, 2015 at 4:20 AM


Visibility: 10 mi

Pressure: 30.39 "Hg

Humidity: 87%

Dew point: 39 °F

Location of Saint HelierLocation

Historic Weather in Saint Helier — Graph

°F

Saint Helier temperature yesterday

Maximum temperature yesterday: 50 °F (at 11:50 AM)
Minimum temperature yesterday: 37 °F (at 5:50 AM)
Average temperature yesterday: 46 °F

Past Weeks' High & Low Weather Summary

 TemperatureHumidityPressure
High52 °F (Mar 1, 11:50 AM)100% (Feb 20, 4:20 AM)30.77 "Hg (Feb 20, 4:20 AM)
Low34 °F (Feb 22, 5:50 AM)61% (Mar 4, 8:20 PM)29.45 "Hg (Feb 23, 3:50 AM)
Average45 °F83%30.01 "Hg
* Reported Feb 20 4:20 AM — Mar 7 3:50 AM, Saint Helier, Weather by CustomWeather, © 2015

Note: Actual official high and low records may vary slightly from our data, if they occured in-between our weather recording intervals... More about our weather records

Advertising

Saint Helier weather history for previous 24 hours

 ConditionsComfort  
Time TempWeatherWind HumidityBarometerVisibility
3:50 AM
Sat, Mar 7
43 °FClear.16 mph87%30.39 "Hg10 mi
2:50 AM45 °FClear.16 mph81%30.39 "Hg10 mi
2:20 AM45 °FClear.16 mph76%30.42 "Hg10 mi
8:50 PM
Fri, Mar 6
48 °FClear.10 mph71%30.48 "Hg10 mi
8:20 PM48 °FClear.10 mph71%30.48 "Hg10 mi
7:50 PM48 °FClear.9 mph71%30.48 "Hg10 mi
7:20 PM48 °FClear.9 mph71%30.48 "Hg10 mi
6:50 PM48 °FClear.13 mph71%30.48 "Hg10 mi
6:20 PM48 °FClear.13 mph71%30.45 "Hg10 mi
5:50 PM46 °FSunny.10 mph82%30.45 "Hg10 mi
5:20 PM48 °FSunny.9 mph76%30.48 "Hg10 mi
4:50 PM50 °FSunny.10 mph71%30.48 "Hg10 mi
4:20 PM50 °FSunny.9 mph71%30.48 "Hg10 mi
3:50 PM50 °FSunny.9 mph71%30.51 "Hg10 mi
3:20 PM50 °FSunny.12 mph71%30.51 "Hg10 mi
2:50 PM50 °FSunny.9 mph71%30.54 "Hg10 mi
2:20 PM50 °FSunny.10 mph71%30.54 "Hg10 mi
1:50 PM48 °FSunny.13 mph76%30.54 "Hg10 mi
1:20 PM48 °FSunny.14 mph76%30.54 "Hg10 mi
12:50 PM48 °FSunny.12 mph76%30.54 "Hg10 mi
12:20 PM48 °FSunny.12 mph76%30.57 "Hg10 mi
11:50 AM50 °FSunny.13 mph71%30.60 "Hg10 mi
11:20 AM48 °FSunny.12 mph76%30.60 "Hg10 mi
10:50 AM48 °FSunny.9 mph71%30.63 "Hg10 mi
10:20 AM48 °FSunny.10 mph76%30.63 "Hg10 mi
9:50 AM46 °FSunny.9 mph82%30.63 "Hg10 mi
9:20 AM45 °FSunny.8 mph87%30.63 "Hg10 mi
8:50 AM45 °FSunny.10 mph87%30.63 "Hg10 mi
8:20 AM43 °FPassing clouds.10 mph93%30.63 "HgN/A
7:50 AM43 °FPassing clouds.10 mph87%30.63 "HgN/A
7:20 AM41 °FSunny.9 mph93%30.63 "Hg10 mi
6:50 AM39 °FSunny.10 mph93%30.63 "Hg10 mi
6:20 AM39 °FClear.9 mph93%30.63 "Hg10 mi
5:50 AM37 °FClear.9 mph100%30.63 "Hg10 mi
5:20 AM39 °FPassing clouds.5 mph93%30.63 "HgN/A
Weather by CustomWeather, © 2015

See weather overviewHow to use our weather pages